Location: Eaton Estates
(41.3089°N, 82.0057°W)
Time: 08:32:44
(UTC+00:00)

Cosmos-2242 - Pass Details

Date: 17 June 2021
Orbit: 590 x 617 km, 82.5° (Epoch: 27 July)

Event Time Altitude Azimuth Distance (km) Brightness Sun altitude
Rises 05:41:40 0° 358° (N) 2,898 7.9 -25.2°
Reaches altitude 10° 05:43:59 10° 5° (N) 1,989 6.7 -25.2°
Maximum altitude 05:48:14 46° 78° (ENE) 839 3.7 -25.2°
Enters shadow 05:48:19 45° 82° (E) 839 3.7 -25.1°
